Location: Breitenfeld
(46.8500°N, 15.6333°E)
Time: 07:43:29
(UTC+00:00)

COSMOS 2406 - Pass Details

Date: 09 April 2020
Orbit: 842 x 865 km, 71.0° (Epoch: 01 June)

Event Time Altitude Azimuth Distance (km) Brightness Sun altitude
Exits shadow 19:13:12 25° 126° (SE) 1,660 4.1 -15.9°
Maximum altitude 19:14:33 27° 103° (ESE) 1,569 4.1 -16.1°
Drops below altitude 10° 19:19:15 10° 47° (NE) 2,486 5.5 -16.8°
Sets 19:22:02 0° 36° (NE) 3,431 6.3 -17.2°
